www.pogodaiklimat.ru

Погода и климат >> Архив погоды >> Италия >> Аэропорт Мальпенса


АРХИВ ПОГОДЫ в Аэропорту Мальпенса

Время (UTC), дата Ветер
(напр.,м/с)
 
Видим.   Явления Облачность Т
(С)
Тd
(С)
f
(%)
Тe
(С)
Тes
(С)
Комфортность P
(гПа)
Po
(гПа)
Тmin
(С)
Tmax
(С)
R
(мм)
R24
(мм)
S
(см)
00 12.06 С 2 22 км 9/0
[Ac trans]
+18.0 +15.7 86 +19 +19 тепло 1009.0 981.2
03 12.06 С 1 14 км слаб. дождь 10/10 1020 м
[Cu Sc]
+17.5 +16.4 93 +19 +19 тепло 1008.6 980.9
06 12.06 С 2 10 км 5/0
[Ci]
+18.6 +16.5 88 +20 +23 тепло 1009.2 981.5 +17.3 1
09 12.06 ЮЗ 2 15 км 5/5 900 м
[Cu med, cong]
+22.9 +15.0 61 +27 +34 душно 1010.2 982.5
12 12.06 нст 2 25 км 3/3 1500 м
[Cu med, cong]
+26.3 +12.6 43 +28 +42 жарко 1010.6 982.9 0.2
15 12.06 ЮЗ 5 25 км 3/3 1500 м
[Cu med, cong]
+26.3 +10.0 36 +27 +31 жарко 1010.6 982.9
18 12.06 ЮЗ 5 25 км 4/4 1500 м
[Cu Sc]
+23.3 +5.8 32 +24 +24 комфорт 1011.3 983.6 +27.1 0.2
21 12.06 Ю 3 20 км ясно +17.7 +7.4 51 +18 +18 по сезону 1013.0 985.2
00 13.06 20 км ясно +11.6 +8.1 79 1013.8 986.0
03 13.06 В 2 н/о н/о +11.5 +8.9 84 +10 +10 холодно 1013.9 986.1
06 13.06 СВ 1 25 км ясно +16.6 +11.5 72 +17 +21 по сезону 1015.2 987.3 +9.9
09 13.06 25 км ясно +21.6 +14.1 62 1016.4 988.5
12 13.06 Ю 3 25 км 3/3 1500 м
[Cu hum]
+24.1 +12.4 48 +26 +38 жарко 1016.3 988.4
15 13.06 25 км 1/1 2000 м
[Cu med, cong]
+26.5 +9.3 34 1015.9 988.0
18 13.06 ЮЗ 2 65 км 5/0
[Ac cast Ci]
+25.2 +7.4 32 +25 +26 комфорт 1016.5 988.6 +26.8
21 13.06 С 2 25 км ясно +18.4 +9.4 56 +19 +19 по сезону 1018.3 990.3
00 14.06 С 4 25 км ясно +15.5 +11.8 79 +15 +15 по сезону 1019.0 991.0
03 14.06 С 3 25 км ясно +15.8 +10.9 73 +16 +16 по сезону 1018.3 990.4
06 14.06 СВ 3 30 км 3/0
[Ci ing]
+19.6 +10.9 57 +21 +24 комфорт 1019.3 991.3 +13.8
09 14.06 20 км 5/0
[Cs]
+25.3 +12.2 44 1019.5 991.6
12 14.06 С 3 20 км 5/0
[Ac cast]
+28.3 +12.0 36 +29 +40 жарко 1018.3 990.4
15 14.06 С 4 25 км 8/0
[Ac As Ci ing]
+28.6 +10.7 33 +29 +32 жарко 1017.0 989.1
18 14.06 З 3 20 км зарница 9/3 1500 м
[Cu med, cong Ac cuf]
+27.3 +9.9 34 +28 +28 жарко 1017.2 989.3 +29.0
21 14.06 С 4 10 км гроза, ливневой дождь 8/8 1200 м
[Cb cap]
+18.6 +16.8 89 +20 +20 по сезону 1016.5 988.6
00 15.06 С 3 10 км ясно +17.9 +16.1 89 +18 +18 тепло 1015.2 987.4 3
03 15.06 С 4 10 км 5/5 750 м
[Cu med, cong]
+18.2 +16.0 87 +18 +18 по сезону 1014.6 986.8
06 15.06 С 3 25 км 8/0
[Cs]
+20.3 +16.8 80 +24 +26 комфорт 1015.2 987.4 +17.4 3
09 15.06 20 км 8/0
[Cs]
+25.0 +17.7 64 1015.9 988.1
12 15.06 нст 2 11 км 5/5 900 м
[Cu hum]
+26.8 +17.7 57 +31 +40 душно 1015.1 987.3
15 15.06 Ю 3 12 км 3/3 900 м
[Cu med, cong]
+27.5 +18.0 56 +32 +38 очень
душно
1013.9 986.0
18 15.06 ЮЗ 4 12 км 5/5 1200 м
[Sc diur, vesp Ac inh]
+25.7 +17.6 61 +30 +30 душно 1013.4 985.6 +28.0
21 15.06 СЗ 6 35 км в посл. час гроза 4/0
[Ac cuf]
+20.5 +17.2 81 +24 +24 комфорт 1014.3 986.4
00 16.06 СЗ 3 25 км ясно +17.3 +14.6 84 +17 +17 по сезону 1015.3 987.4 1
03 16.06 С 1 40 км туман местами ясно +13.9 +13.4 97 +14 +14 прохладно 1014.6 986.8
06 16.06 СЗ 3 25 км ясно +18.7 +13.9 74 +20 +22 тепло 1015.6 987.7 +12.8 1
09 16.06 СЗ 4 30 км ясно +25.4 +10.9 40 +26 +37 жарко 1015.8 987.9
12 16.06 ЮЗ 4 30 км ясно +28.2 +13.0 39 +30 +42 жарко 1015.0 987.2
15 16.06 ЮЗ 6 >70 км ясно +29.7 +11.5 33 +30 +35 жарко 1013.9 986.0
18 16.06 З 5 >70 км ясно +28.2 +11.9 36 +29 +30 жарко 1013.7 985.9 +30.0
21 16.06 С 2 30 км ясно +20.2 +13.7 66 +23 +23 комфорт 1014.4 986.5
00 17.06 С 3 30 км ясно +17.5 +9.9 61 +18 +18 тепло 1015.0 987.1
03 17.06 С 3 25 км ясно +16.7 +9.4 62 +16 +16 по сезону 1015.4 987.6
06 17.06 С 3 35 км 4/0
[Cc]
+20.7 +10.8 53 +23 +25 комфорт 1016.9 989.0 +14.8
09 17.06 ЮВ 3 55 км 5/3 1500 м
[Cu hum Ac cast]
+26.7 +15.1 49 +29 +36 жарко 1018.2 990.3
12 17.06 нст 1 40 км 5/5 1500 м
[Cu hum]
+27.8 +12.3 38 +29 +40 жарко 1017.2 989.3
15 17.06 С 2 20 км 4/4 2000 м
[Cu hum]
+29.3 +13.0 37 +31 +37 жарко 1015.4 987.6
18 17.06 З 3 20 км ясно +29.1 +13.6 39 +31 +32 жарко 1014.8 986.9 +30.9
21 17.06 С 1 30 км 5/0
[Ac trans]
+23.0 +16.8 68 +28 +28 душно 1015.9 988.0
00 18.06 С 3 25 км 6/6 1500 м
[Sc]
+19.9 +16.4 80 +23 +23 комфорт 1016.8 988.9
03 18.06 СВ 4 19 км гроза без осадков 6/6 1200 м
[Cb calv]
+19.9 +16.7 82 +23 +23 комфорт 1016.5 988.6
06 18.06 С 4 25 км {гроза, дождь} 4/1 1200 м
[Cb calv Ac cuf]
+20.6 +17.2 81 +24 +26 комфорт 1017.3 989.4 +18.1 0.8
09 18.06 25 км ясно +26.8 +16.2 52 1017.0 989.1
12 18.06 З 3 25 км 4/4 1350 м
[Cu med, cong]
+28.9 +16.4 47 +32 +43 душно 1015.9 988.0
15 18.06 З 2 25 км 3/3 1000 м
[Cu med, cong Cs]
+30.2 +15.3 40 +33 +39 душно 1014.1 986.3
18 18.06 З 3 30 км 4/0
[Ci fib]
+28.4 +15.4 45 +31 +32 душно 1013.9 986.1 +30.4
21 18.06 С 3 10 км ясно +21.9 +17.2 75 +26 +26 душно 1014.8 987.0

 

Местоположение метеостанции Аэропорт Мальпенса (Италия): широта 45.62 долгота 8.73 высота над уровнем моря 211 м.

В архиве по умолчанию представлена погода в Аэропорту Мальпенса за последнюю неделю. Архивные данные за месяц целиком и за предыдущие месяцы, начиная с января 2011 года, Вы можете получить, выбрав интересующий диапазон дат из раскрывающегося списка и нажав кнопку "Ввод!".


*Определитесь, кто Вы:
робот инопланетянин человек

Внимание! Время в таблицах - всемирное. Для получения местного времени необходимо прибавить поправку, которая равна 1 ч.

Смотрите также архив погоды в соседних городах и на ближайших метеорологических станциях:

Погода в Новара (Италия) (12 км)
Погода в Стабио (Швейцария) (30 км)
Погода на Монте-Дженеросо (Швейцария) (41 км)
Погода в Лугано (Швейцария) (46 км)
Погода в Милане (Италия) (48 км)
Погода в Казале-Монферрато (Италия) (59 км)
Погода в Локарно-Монти (Швейцария) (61 км)
Погода в Локарно-Магадино (Швейцария) (62 км)
Погода на Циметте (Швейцария) (65 км)
Погода в Бергамо (Италия) (76 км)

Пояснения к столбцам:

Ветер - указаны скорость ветра в м/с - средняя за 10 мин, порывы в срок и между сроками (в фигурных скобках) и направление, откуда дует ветер: С - северный, СВ - северо-восточный, В - восточный, ЮВ - юго-восточный, Ю - южный, ЮЗ - юго-западный, З - западный, СЗ - северо-западный.
Видимость - горизонтальная дальность видимости в метрах или километрах. При видимости от 1 до 10 км при отсутствии осадков обычно наблюдается дымка, при ухудшении видимости до 1 км и менее - туман. В сухую погоду видимость может ухудшаться дымом, пылью или мглою.
Явления - указаны атмосферные явления, наблюдавшиеся в срок или в последний час перед сроком; фигурными скобками обозначены явления, наблюдавшиеся между сроками (за 1-3 часа до срока); квадратными скобками обозначены град или гололедные отложения с указанием их диаметра в мм.
Облачность - указаны через наклонную черту общая и нижняя облачность в баллах и высота нижней границы облаков в метрах; квадратными скобками обозначены формы облаков: Ci - перистые, Cs - перисто-слоистые, Cc - перисто-кучевые, Ac - высококучевые, As - высокослоистые, Sc - слоисто-кучевые, Ns - слоисто-дождевые, Cu - кучевые, Cb - кучево-дождевые. Подробнее классификацию облаков см. в Атласе облаков (PDF).
T - Температура воздуха - температура, измеренная на высоте 2 м над землей.
Td - Температура точки росы - температура, при понижении до которой содержащийся в воздухе водяной пар достигнет насыщения.
f - Относительная влажность воздуха - влажноcть воздуха, измеренная на высоте 2 м над землей.
Te - Эффективная температура - температура, которую ощущает одетый по сезону человек в тени. Характеристика душности погоды. При расчете учитывается влияние влажности воздуха и скорости ветра на теплоощущения человека.
Tes - Эффективная температура на солнце - температура, которую ощущает человек, с поправкой на солнечный нагрев. Характеристика знойности погоды. Зависит от высоты солнца над горизонтом, облачности и скорости ветра. Ночью, в пасмурную погоду, а также при ветре 12 м/с и более поправка равна нулю.
P - Атмосферное давление - приведенное к уровню моря атмосферное давление.
Po - Атмосферное давление - измеренное на уровне метеостанции атмосферное давление.
Tmin - Минимальная температура - минимум температуры воздуха на высоте 2 м над землей.
Tmax - Максимальная температура - максимум температуры воздуха на высоте 2 м над землей.
R - Количество осадков - Количество выпавших осадков за период времени, мм. При наведении курсора мыши на число - период времени, за который выпало указанное количество осадков.
R24 - Количество осадков - Количество выпавших осадков за 24 часа, мм.
S - Снежный покров - Высота снежного покрова, см. При наведении курсора мыши на число - состояние снежного покрова и степень покрытия местности в баллах.